Location: Alulod
(14.2076°N, 120.8898°E)
Time: 02:14:25
(UTC+00:00)

Cosmos 1833 - Pass Details

Date: 13 December 2025
Orbit: 832 x 866 km, 70.9° (Epoch: 15 January)

Event Time Altitude Azimuth Distance (km) Brightness Sun altitude
Rises 20:20:50 0° 195° (SSW) 3,363 7.4 -26.0°
Reaches altitude 10° 20:23:15 10° 194° (SSW) 2,432 6.6 -25.4°
Maximum altitude 20:28:50 86° 105° (ESE) 839 4.1 -24.1°
Drops below altitude 10° 20:34:27 10° 18° (NNE) 2,450 6.6 -22.9°
Sets 20:36:54 0° 17° (NNE) 3,390 7.3 -22.3°
